Regional Weather Roundup
Issued by NWS Mt. Holly, NJ

Home | Current Version | Previous Version | Text Only | Print | Product List | Glossary On
Versions: 1 2 3 4 5 6 7 8 9 10 11 12 13 14 15 16 17 18 19 20 21 22 23 24 25 26 27
000
ASUS41 KPHI 202312
RWRPHI

REGIONAL WEATHER ROUNDUP
NATIONAL WEATHER SERVICE MOUNT HOLLY NJ
700 PM EDT SUN AUG 20 2017

NOTE:  "FAIR" INDICATES FEW OR NO CLOUDS BELOW 12,000 FEET WITH NO
SIGNIFICANT WEATHER AND/OR OBSTRUCTIONS TO VISIBILITY.

 * = STATION DOES NOT REPORT PRECIPITATION (E.G. RAIN, SNOW, ETC.)
        OR FOG.

NJZ015>026-210000-
SOUTHERN NEW JERSEY

CITY           SKY/WX    TMP DP  RH WIND       PRES   REMARKS
POMONA         CLEAR     82  63  52 W7        30.10R
WILDWOOD*      CLEAR     79  66  64 W7        30.12R
MILLVILLE      CLEAR     80  68  66 W3        30.11R
WRIGHTSTOWN    CLEAR     79  60  52 N5        30.08R
MOUNT HOLLY    CLEAR     80  61  52 NW3       30.10R
TRENTON        CLEAR     80  61  52 NW3       30.10R

$$
NJZ001>014-210000-
NORTHERN NEW JERSEY

CITY           SKY/WX    TMP DP  RH WIND       PRES   REMARKS
SUSSEX         CLEAR     76  68  76 CALM      30.11R
ANDOVER*         N/A     75  64  68 CALM      30.11S
MORRISTOWN     PTCLDY    79  61  53 CALM      30.10R
NEWARK         PTCLDY    82  56  40 NW9G20    30.08R
TETERBORO      CLEAR     81  59  47 NW8       30.07R
CALDWELL       CLEAR     80  61  52 NW5       30.10R
SOMERVILLE     CLEAR     77  66  68 CALM      30.08R
ALLAIRE*       CLEAR     80  62  54 W6        30.11R
TOMS RIVER*    CLEAR     80  62  54 NW3       30.11R

$$
PAZ043-044-047-054-055-060>062-066>071-210000-
EASTERN PENNSYLVANIA

CITY           SKY/WX    TMP DP  RH WIND       PRES   REMARKS
PHILADELPHIA   PTCLDY    83  58  42 N9        30.11R
NORTH PHILA    CLEAR     82  61  48 W6        30.12R
BLUE BELL*     CLEAR     77  63  61 CALM      30.13R
DOYLESTOWN     CLEAR     79  62  56 CALM      30.11R
QUAKERTOWN*    CLEAR     79  63  57 CALM      30.12S
PERKASIE*      FAIR      75  64  69 SW3       30.13S
POTTSTOWN      CLEAR     79  61  53 CALM      30.13R
LANCASTER      CLEAR     81  62  52 W5        30.12S
COATESVILLE    CLEAR     77  64  65 CALM      30.14S
READING        CLEAR     80  64  58 SW5       30.10S
ALLENTOWN      CLEAR     79  63  57 SW7       30.10S
MOUNT POCONO     N/A     72  58  61 NW6       30.17R
HAZLETON         N/A     75  61  60 CALM      30.18S
LEHIGHTON      FAIR      79  64  61 CALM      30.11R
WILKES BARRE   CLEAR     78  61  55 SW3       30.12R

$$
DEZALL-MDZ008-012-015-019-020-210000-
DELAWARE AND EASTERN MARYLAND

CITY           SKY/WX    TMP DP  RH WIND       PRES   REMARKS
WILMINGTON     CLEAR     81  62  52 NW6       30.11S
DOVER          CLEAR     81  59  47 W6        30.12R
GEORGETOWN     CLEAR     83  62  49 CALM      30.13R
ABERDEEN       CLEAR     80  65  61 CALM      30.12R
PATUXENT       CLEAR     80  70  71 CALM      30.12R
OCEAN CITY     CLEAR     77  69  76 S3        30.13R
WALLOPS ISLAND CLEAR     79  70  74 S8        30.13R
CAMBRIDGE      CLEAR     81  66  61 CALM      30.12S
SALISBURY      CLEAR     82  64  54 NW5       30.12R

$$
PAZ001-021-NYZ056-072-MDZ011-DCZ001-210000-
OTHER NEARBY LOCATIONS

CITY           SKY/WX    TMP DP  RH WIND       PRES   REMARKS
HARRISBURG     PTCLDY    78  70  76 S3        30.10S
STATE COLLEGE  SUNNY     75  63  64 SW6       30.14S
WILLIAMSPORT   CLEAR     81  64  56 SW7       30.08R
BINGHAMTON     CLEAR     73  61  65 SW3       30.13R
NEW YORK CITY  CLEAR     80  57  45 VRB6      30.11R
BALTIMORE      CLEAR     83  61  47 VRB5      30.11R
WASHINGTON DC  CLEAR     85  64  49 N6        30.11R

$$




USA.gov is the U.S. government's official web portal to all federal, state and local government web resources and services.